STARLINK-11396, 62015

Orbit data source: Space-Track

STARLINK-11396, 62015 is a payload satellite owned by SpaceX/Seattle (US) in LEO that was launched on Mon, 18 Nov 2024 UTC via an FALCON 9 launch vehicle from the Air Force Western Test Range (AFWTR). Payload-class satellites include a variety of spacecraft equipped with specific instruments for various scientific and technological missions. These include communications satellites like Starlink; space stations such as the ISS; scientific satellites like the Hubble; Earth observation satellites from companies like Planet Labs, Umbra, and HawkEye 360; GPS; miniature CubeSats for education and research; and military/defense satellites.

Loading next visibility...
Identifier
62015, 2024-213H
Orbit
LEO
Last TLE update
9 hours ago
Origin
Manufacturer
SpaceX/Seattle
Mission
Operational Commercial Communications
Bus & Motor
STARLINK V2M, Unknown motor
Mass
730 kg wet, ~700 kg dry
Launch date (UTC)
2024-11-18 (7 months ago)
Launch vehicle
FALCON 9
Launch site
Air Force Western Test Range (AFWTR)
Object type
Payload
Rocket body
Debris
Shape & HBR
Box + 2 Pan, 29 m
Radar Cross Section
36.964 m², Large (>1 m²)

Expand to show TLE details & history

TLE from 9 hours ago
0 STARLINK-11396
1 62015U 24213H   25181.78433127  .00174799  00000-0  14147-2 0  9994
2 62015  53.1583 202.8354 0001245  96.8231 263.2929 15.69757144 36197
Epoch: 2025-06-30T18:49Z
TLE epoch observation values (Epoch: 2025-06-30T18:49:26.221Z)
Latitude
-0°
Longitude
1.38698°
Altitude
360.605 km
Speed
7.694 km/s
True Right ascension
13h 31m 20s
True Declination
0° 00' 00"
Sunlit
Object was in daylight at epoch
Visualization orbit readout
Latitude
-22.78965°
Longitude
-18.71342°
Altitude
366.215 km
Speed
7.689 km/s
Apparent Right ascension
08h 47m 53s
Apparent Declination
-54° 08' 15"
Sunlit
Object is in daylight
Visualization observer readout
Local Sidereal Time
15:29:32
Azimuth
226.143° WSW
Elevation
-36.956°
Doppler factor
1
Orbital elements
Apogee altitude
360.692 km
Perigee altitude
359.014 km
Semi-major axis
6,737.99 km
Eccentricity
0.00012
Inclination
53.1583°
RAAN
202.8354°
Arg. of periapsis
96.8231°
True anomaly
Unknown
Mean anomaly
263.2929°
Eccentric anomaly
Unknown
Mean motion
3.92417 °/min
Orbital period
91.74 mins
BSTAR
0.0014147
Loading maneuver chart data...
Loading SW <> Apogee altitude chart data...
Loading historical data...
Loading historical data...
Loading historical data...
Loading historical data...
Loading historical data...
Loading historical data...
Loading historical data...

STARLINK-11396 Visibility forecast

Observer location: undefined°, undefined°

Span
Click to sort rows by Start time (UTC) header in descending order
Start Az.
Max El. time (UTC)
Max El. Az.
Max El.
End time (UTC)
End Az.
5 mins2025-07-01 04:10:09.967Z221.869° SW2025-07-01 04:13:09.967Z79.247° E39.992°2025-07-01 04:15:09.967Z54.727° ENE
4 mins2025-07-01 10:36:09.967Z340.391° N2025-07-01 10:37:09.967Z22.415° NNE33.955°2025-07-01 10:40:09.967Z109.783° ESE
|